Time,TemperatureF,DewpointF,PressureIn,WindDirection,WindDirectionDegrees,WindSpeedMPH,WindSpeedGustMPH,Humidity,HourlyPrecipIn,Conditions,Clouds,dailyrainin,SoftwareType,DateUTC
2013-07-22 09:11:00,70.0,67.0,-100.00,SE,140,1.0,5.0,90,0.00,,,-99.99,,2013-07-22 13:11:00,
2013-07-22 09:32:00,70.0,67.0,-100.00,East,95,1.0,5.0,90,0.00,,,-99.99,,2013-07-22 13:32:00,
2013-07-22 09:53:00,72.0,68.0,-100.00,ESE,110,1.0,3.0,89,0.00,,,-99.99,,2013-07-22 13:53:00,
2013-07-22 10:11:00,72.0,68.0,-100.00,SSW,205,2.0,7.0,87,0.00,,,-99.99,,2013-07-22 14:11:00,
2013-07-22 10:22:00,72.0,68.0,-100.00,SSW,210,2.0,6.0,88,0.00,,,-99.99,,2013-07-22 14:22:00,
2013-07-22 10:32:00,72.0,69.0,-100.00,SSW,195,3.0,6.0,88,7.36,,,-99.99,,2013-07-22 14:32:00,
2013-07-22 10:43:00,73.0,69.0,-100.00,South,190,3.0,8.0,87,0.00,,,-99.99,,2013-07-22 14:43:00,
2013-07-22 10:53:00,73.0,69.0,-100.00,SSE,150,1.0,6.0,88,0.00,,,-99.99,,2013-07-22 14:53:00,
2013-07-22 11:11:00,72.0,69.0,-100.00,ESE,120,1.0,4.0,89,0.55,,,-99.99,,2013-07-22 15:11:00,
2013-07-22 11:22:00,72.0,69.0,-100.00,ESE,120,1.0,3.0,90,0.55,,,-99.99,,2013-07-22 15:22:00,
2013-07-22 11:33:00,73.0,70.0,-100.00,ESE,120,1.0,4.0,90,0.00,,,-99.99,,2013-07-22 15:33:00,
2013-07-22 11:43:00,73.0,70.0,-100.00,SSE,150,2.0,5.0,89,0.00,,,-99.99,,2013-07-22 15:43:00,
2013-07-22 11:52:00,73.0,69.0,-100.00,SE,125,1.0,4.0,88,0.00,,,-99.99,,2013-07-22 15:52:00,
2013-07-22 12:52:00,73.0,70.0,-100.00,ENE,65,1.0,6.0,90,0.00,,,-99.99,,2013-07-22 16:52:00,
2013-07-22 13:01:00,73.0,71.0,-100.00,South,180,2.0,6.0,93,5.67,,,-99.99,,2013-07-22 17:01:00,
2013-07-22 13:52:00,70.0,69.0,-100.00,South,190,7.0,19.0,95,13.03,,,-99.99,,2013-07-22 17:52:00,
2013-07-22 14:38:00,69.0,68.0,-100.00,SSW,195,4.0,6.0,95,0.55,,,-99.99,,2013-07-22 18:38:00,
2013-07-22 14:56:00,69.0,68.0,-100.00,ESE,115,1.0,9.0,95,1.69,,,-99.99,,2013-07-22 18:56:00,
2013-07-22 15:05:00,69.0,68.0,-100.00,ESE,115,1.0,9.0,95,1.69,,,-99.99,,2013-07-22 19:05:00,
2013-07-22 15:16:00,69.0,68.0,-100.00,WNW,285,5.0,9.0,96,0.55,,,-99.99,,2013-07-22 19:16:00,
2013-07-22 15:45:00,70.0,69.0,-100.00,ESE,105,1.0,6.0,96,0.00,,,-99.99,,2013-07-22 19:45:00,
2013-07-22 15:55:00,72.0,71.0,-100.00,SSE,165,1.0,7.0,95,0.00,,,-99.99,,2013-07-22 19:55:00,
2013-07-22 16:22:00,73.0,72.0,-100.00,SSW,210,4.0,7.0,94,0.00,,,-99.99,,2013-07-22 20:22:00,
2013-07-22 16:32:00,73.0,72.0,-100.00,SSW,210,4.0,7.0,94,0.00,,,-99.99,,2013-07-22 20:32:00,
2013-07-22 16:52:00,73.0,71.0,-100.00,South,170,3.0,9.0,91,0.00,,,-99.99,,2013-07-22 20:52:00,
2013-07-22 17:01:00,73.0,70.0,-100.00,SSW,200,6.0,9.0,90,0.00,,,-99.99,,2013-07-22 21:01:00,
2013-07-22 17:52:00,72.0,69.0,-100.00,South,170,1.0,7.0,90,0.55,,,-99.99,,2013-07-22 21:52:00,
2013-07-22 18:11:00,72.0,69.0,-100.00,SSW,205,4.0,7.0,91,0.00,,,-99.99,,2013-07-22 22:11:00,
2013-07-22 18:52:00,72.0,69.0,-100.00,SSW,205,2.0,7.0,92,0.00,,,-99.99,,2013-07-22 22:52:00,
2013-07-22 19:11:00,72.0,70.0,-100.00,WSW,240,1.0,4.0,92,0.55,,,-99.99,,2013-07-22 23:11:00,
2013-07-22 20:22:00,72.0,70.0,-100.00,South,170,1.0,5.0,92,0.00,,,-99.99,,2013-07-23 00:22:00,
2013-07-22 20:52:00,72.0,70.0,-100.00,South,175,0.0,4.0,92,0.00,,,-99.99,,2013-07-23 00:52:00,
2013-07-22 21:11:00,71.0,69.0,-100.00,SW,225,1.0,3.0,93,0.00,,,-99.99,,2013-07-23 01:11:00,
2013-07-22 21:22:00,71.0,69.0,-100.00,South,180,1.0,3.0,93,0.00,,,-99.99,,2013-07-23 01:22:00,
2013-07-22 21:32:00,71.0,69.0,-100.00,WNW,300,0.0,2.0,93,0.00,,,-99.99,,2013-07-23 01:32:00,
2013-07-22 21:53:00,71.0,69.0,-100.00,SW,235,2.0,4.0,94,0.00,,,-99.99,,2013-07-23 01:53:00,
2013-07-22 22:11:00,71.0,69.0,-100.00,NNW,345,1.0,6.0,94,0.00,,,-99.99,,2013-07-23 02:11:00,
2013-07-22 22:22:00,71.0,69.0,-100.00,WNW,295,1.0,4.0,93,0.00,,,-99.99,,2013-07-23 02:22:00,
2013-07-22 22:33:00,71.0,69.0,-100.00,WNW,285,0.0,2.0,93,0.00,,,-99.99,,2013-07-23 02:33:00,
2013-07-22 22:53:00,70.0,68.0,-100.00,West,265,1.0,4.0,93,0.00,,,-99.99,,2013-07-23 02:53:00,
2013-07-22 23:02:00,70.0,68.0,-100.00,WSW,250,1.0,2.0,93,0.00,,,-99.99,,2013-07-23 03:02:00,
2013-07-22 23:52:00,68.0,67.0,-100.00,North,0,0.0,2.0,94,0.00,,,-99.99,,2013-07-23 03:52:00,